Location: Tucson
(32.2217°N, 110.9265°W)
Time: 08:08:47
(UTC-07:00)

Transit 4A - Visible Passes

Search period start: 25 October 2021 00:00
Search period end: 04 November 2021 00:00
Orbit: 869 x 976 km, 66.8° (Epoch: 24 October)

Date Brightness Start Highest point End Pass type
(mag) Time Alt. Az. Time Alt. Az. Time Alt. Az.
25 Oct 8.7 03:53:20 45° E 03:53:20 45° E 03:58:03 10° NE visible
25 Oct 9.0 05:36:56 18° W 05:39:01 21° NW 05:43:24 10° N visible
26 Oct 8.6 04:03:32 45° NE 04:03:32 45° NE 04:07:30 10° NNE visible
26 Oct 9.4 05:47:07 13° WNW 05:48:38 14° NW 05:51:38 10° NNW visible
27 Oct 8.9 04:13:32 33° N 04:13:32 33° N 04:16:45 10° NNE visible
28 Oct 9.3 04:23:22 24° N 04:23:22 24° N 04:25:50 10° N visible
29 Oct 9.6 04:33:04 17° N 04:33:04 17° N 04:34:42 10° N visible
30 Oct 9.9 04:42:39 12° NNW 04:42:39 12° NNW 04:43:17 10° N visible
